K6PKL-2 Weather Reports


Display with metric or nautical units.
time (UTC)temp
F
wind
direction
speed
MPH
gust
MPH
rain 1hr
in
rain 24hr
in
rain mn
in
humidity
%
barometer
mb
20260904010639 82 24 6.0 7.0 0.00 0.00 0.00 54 1015.6
20260904010239 82 14 4.0 8.0 0.00 0.00 0.00 54 1015.6
20260904005839 82 306 3.0 7.0 0.00 0.00 0.00 54 1015.6
20260904005439 83 335 6.0 8.0 0.00 0.00 0.00 54 1015.6
20260904005039 82 312 7.0 7.0 0.00 0.00 0.00 54 1015.5
20260904004639 82 265 6.0 7.0 0.00 0.00 0.00 54 1015.5
20260904004239 82 315 2.0 7.0 0.00 0.00 0.00 54 1015.5
20260904003838 83 315 1.0 5.0 0.00 0.00 0.00 54 1015.4
20260904003438 83 355 6.0 6.0 0.00 0.00 0.00 53 1015.6
20260904003038 83 321 2.0 7.0 0.00 0.00 0.00 53 1015.5
20260904002638 83 288 3.0 9.0 0.00 0.00 0.00 53 1015.4
20260904002238 83 348 5.0 7.0 0.00 0.00 0.00 53 1015.5
20260904001838 83 319 4.0 8.0 0.00 0.00 0.00 52 1015.5
20260904001439 83 315 3.0 5.0 0.00 0.00 0.00 52 1015.5
20260904001038 83 267 3.0 6.0 0.00 0.00 0.00 51 1015.5
20260904000637 83 267 2.0 7.0 0.00 0.00 0.00 52 1015.6
20260904000237 83 265 4.0 6.0 0.00 0.00 0.00 52 1015.6
20260903235437 83 320 2.0 5.0 0.00 0.00 0.00 52 1015.6
20260903234237 83 211 2.0 8.0 0.00 0.00 0.00 52 1015.5
20260903233836 83 6 5.0 5.0 0.00 0.00 0.00 51 1015.5
20260903233437 83 324 2.0 6.0 0.00 0.00 0.00 53 1015.7
20260903233036 83 282 1.0 6.0 0.00 0.00 0.00 53 1015.7
20260903232636 83 0 4.0 8.0 0.00 0.00 0.00 53 1015.6
20260903232236 82 335 5.0 5.0 0.00 0.00 0.00 53 1015.8
20260903231836 82 63 1.0 4.0 0.00 0.00 0.00 53 1015.7
20260903231435 82 45 1.0 7.0 0.00 0.00 0.00 53 1015.8
20260903231035 82 315 6.0 7.0 0.00 0.00 0.00 53 1016.0
20260903230635 81 135 2.0 8.0 0.00 0.00 0.00 53 1016.0
20260903230236 81 315 0.0 3.0 0.00 0.00 0.00 54 1016.0
20260903225435 81 0 3.0 4.0 0.00 0.00 0.00 53 1016.1
20260903224635 81 2 7.0 7.0 0.00 0.00 0.00 53 1016.3
20260903224234 82 218 2.0 5.0 0.00 0.00 0.00 52 1016.5
20260903223834 82 229 3.0 7.0 0.00 0.00 0.00 53 1016.5
20260903223434 82 339 5.0 6.0 0.00 0.00 0.00 52 1016.4
20260903223034 82 211 2.0 6.0 0.00 0.00 0.00 53 1016.4
20260903222634 82 315 3.0 7.0 0.00 0.00 0.00 52 1016.5
20260903222234 82 31 3.0 8.0 0.00 0.00 0.00 53 1016.5
20260903221834 82 355 3.0 5.0 0.00 0.00 0.00 53 1016.6
20260903221433 82 216 2.0 10.0 0.00 0.00 0.00 52 1016.6
20260903221033 81 240 5.0 8.0 0.00 0.00 0.00 52 1016.7
20260903220233 81 321 6.0 13.0 0.00 0.00 0.00 53 1016.8
20260903215833 81 346 3.0 5.0 0.00 0.00 0.00 54 1016.9
20260903215433 81 225 1.0 5.0 0.00 0.00 0.00 54 1016.8
20260903215033 81 319 3.0 3.0 0.00 0.00 0.00 53 1016.9
20260903214633 81 301 2.0 4.0 0.00 0.00 0.00 53 1017.0
20260903214233 81 222 6.0 7.0 0.00 0.00 0.00 53 1016.9
20260903213833 81 283 1.0 5.0 0.00 0.00 0.00 54 1017.0
20260903213033 81 306 3.0 6.0 0.00 0.00 0.00 54 1017.1
20260903212632 80 216 4.0 9.0 0.00 0.00 0.00 54 1017.0
20260903212232 80 0 1.0 4.0 0.00 0.00 0.00 54 1017.1
20260903211831 80 45 2.0 4.0 0.00 0.00 0.00 54 1017.1
20260903211431 80 275 1.0 6.0 0.00 0.00 0.00 54 1017.1
20260903211032 80 236 1.0 2.0 0.00 0.00 0.00 54 1017.1
20260903210631 80 45 0.0 6.0 0.00 0.00 0.00 54 1017.2
20260903210232 80 303 6.0 6.0 0.00 0.00 0.00 55 1017.3
20260903205831 80 244 3.0 4.0 0.00 0.00 0.00 55 1017.3
20260903205431 79 189 2.0 7.0 0.00 0.00 0.00 54 1017.3
20260903205030 79 270 0.0 9.0 0.00 0.00 0.00 55 1017.4
20260903204230 79 315 1.0 2.0 0.00 0.00 0.00 57 1017.4
20260903203430 78 9 4.0 7.0 0.00 0.00 0.00 57 1017.5
20260903202630 78 103 2.0 4.0 0.00 0.00 0.00 58 1017.5
20260903201826 77 310 4.0 9.0 0.00 0.00 0.00 58 1017.8
20260903201426 77 209 6.0 6.0 0.00 0.00 0.00 58 1017.7
20260903201026 77 205 3.0 9.0 0.00 0.00 0.00 58 1017.8
20260903200626 76 7 4.0 6.0 0.00 0.00 0.00 60 1017.9
20260903200226 76 216 6.0 6.0 0.00 0.00 0.00 60 1017.8
20260903195826 76 90 0.0 6.0 0.00 0.00 0.00 62 1017.8
20260903195025 76 210 2.0 7.0 0.00 0.00 0.00 62 1018.0
20260903194625 75 315 2.0 4.0 0.00 0.00 0.00 62 1018.1
20260903194225 75 315 3.0 9.0 0.00 0.00 0.00 62 1018.2
20260903193826 75 11 2.0 11.0 0.00 0.00 0.00 62 1018.2
20260903193027 74 0 6.0 6.0 0.00 0.00 0.00 64 1018.3
20260903192624 74 85 3.0 3.0 0.00 0.00 0.00 65 1018.2
20260903191824 74 58 1.0 3.0 0.00 0.00 0.00 64 1018.4
20260903191024 74 213 2.0 4.0 0.00 0.00 0.00 65 1018.6
20260903190224 73 270 1.0 7.0 0.00 0.00 0.00 65 1018.7
20260903185823 73 58 4.0 7.0 0.00 0.00 0.00 64 1018.8
20260903185423 73 342 5.0 5.0 0.00 0.00 0.00 65 1018.8
20260903185023 73 225 2.0 4.0 0.00 0.00 0.00 66 1018.8
20260903184911 72 283 2.0 6.0 0.00 0.00 0.00 66 1018.9
20260903184623 72 283 2.0 6.0 0.00 0.00 0.00 66 1018.9
20260903184223 72 0 3.0 4.0 0.00 0.00 0.00 67 1019.0
20260903183823 72 0 1.0 4.0 0.00 0.00 0.00 66 1019.0
20260903183423 72 315 1.0 3.0 0.00 0.00 0.00 67 1018.9
20260903182622 71 343 1.0 6.0 0.00 0.00 0.00 68 1019.1
20260903181822 71 90 1.0 2.0 0.00 0.00 0.00 70 1019.2
20260903181422 70 315 1.0 6.0 0.00 0.00 0.00 71 1019.1
20260903181022 70 45 4.0 4.0 0.00 0.00 0.00 71 1019.2
20260903180622 70 186 2.0 5.0 0.00 0.00 0.00 71 1019.2
20260903180222 69 22 3.0 6.0 0.00 0.00 0.00 71 1019.3
20260903175821 69 342 3.0 5.0 0.00 0.00 0.00 72 1019.3
20260903175421 69 337 2.0 4.0 0.00 0.00 0.00 72 1019.4
20260903175021 69 49 1.0 1.0 0.00 0.00 0.00 73 1019.4
20260903174621 69 225 1.0 3.0 0.00 0.00 0.00 73 1019.4
20260903174221 69 202 1.0 2.0 0.00 0.00 0.00 74 1019.3
20260903173822 68 225 3.0 4.0 0.00 0.00 0.00 73 1019.4
20260903173421 68 225 2.0 3.0 0.00 0.00 0.00 73 1019.5
20260903171020 67 351 2.0 3.0 0.00 0.00 0.00 75 1019.7
20260903170620 67 344 3.0 4.0 0.00 0.00 0.00 75 1019.7
20260903170219 67 193 0.0 4.0 0.00 0.00 0.00 75 1019.6
20260903165819 67 240 2.0 4.0 0.00 0.00 0.00 75 1019.7
20260903165419 66 45 1.0 3.0 0.00 0.00 0.00 75 1019.6
20260903164619 66 207 5.0 6.0 0.00 0.00 0.00 76 1019.7
20260903164219 66 315 2.0 4.0 0.00 0.00 0.00 76 1019.8
20260903163819 66 243 2.0 5.0 0.00 0.00 0.00 76 1019.7
20260903163419 65 225 5.0 7.0 0.00 0.00 0.00 76 1019.7
20260903162618 65 207 8.0 8.0 0.00 0.00 0.00 77 1019.7
20260903162218 65 9 1.0 8.0 0.00 0.00 0.00 77 1019.7
20260903161418 64 211 4.0 12.0 0.00 0.00 0.00 77 1019.7
20260903161018 64 270 0.0 7.0 0.00 0.00 0.00 77 1019.7
20260903160617 64 245 1.0 5.0 0.00 0.00 0.00 77 1019.8
20260903160217 63 225 1.0 2.0 0.00 0.00 0.00 77 1019.8
20260903155817 63 0 1.0 3.0 0.00 0.00 0.00 78 1019.8
20260903154217 63 315 1.0 2.0 0.00 0.00 0.00 77 1020.1
20260903153816 62 0 1.0 3.0 0.00 0.00 0.00 77 1020.1
20260903153016 62 315 0.0 1.0 0.00 0.00 0.00 76 1020.1
20260903152216 62 225 1.0 1.0 0.00 0.00 0.00 75 1020.2
20260903151816 62 225 1.0 2.0 0.00 0.00 0.00 75 1020.3
20260903151016 62 90 0.0 1.0 0.00 0.00 0.00 75 1020.3
20260903150615 62 45 0.0 0.0 0.00 0.00 0.00 75 1020.2
20260903150215 62 0 0.0 1.0 0.00 0.00 0.00 75 1020.2
20260903145815 62 45 1.0 3.0 0.00 0.00 0.00 75 1020.1
20260903145415 61 45 2.0 3.0 0.00 0.00 0.00 74 1020.1
20260903144615 61 45 1.0 1.0 0.00 0.00 0.00 75 1020.2
20260903144214 61 45 0.0 2.0 0.00 0.00 0.00 74 1020.4
20260903143814 61 315 0.0 1.0 0.00 0.00 0.00 75 1020.4
20260903143014 61 0 0.0 2.0 0.00 0.00 0.00 75 1020.4
20260903142614 61 45 0.0 2.0 0.00 0.00 0.00 74 1020.3
20260903142214 61 0 0.0 2.0 0.00 0.00 0.00 74 1020.3
20260903141414 61 0 1.0 3.0 0.00 0.00 0.00 74 1020.3
20260903140614 61 40 1.0 3.0 0.00 0.00 0.00 73 1020.2
20260903140213 61 47 2.0 2.0 0.00 0.00 0.00 73 1020.1
20260903135414 61 45 1.0 3.0 0.00 0.00 0.00 74 1020.0
20260903135013 61 45 2.0 4.0 0.00 0.00 0.00 73 1019.9
20260903134613 61 45 1.0 3.0 0.00 0.00 0.00 73 1019.9
20260903134212 62 45 0.0 2.0 0.00 0.00 0.00 73 1020.0
20260903133812 62 45 0.0 1.0 0.00 0.00 0.00 73 1019.9
20260903133413 62 45 1.0 1.0 0.00 0.00 0.00 74 1020.0
20260903133012 62 45 0.0 2.0 0.00 0.00 0.00 73 1019.9
20260903132612 62 45 2.0 3.0 0.00 0.00 0.00 73 1019.9
20260903132212 62 45 1.0 3.0 0.00 0.00 0.00 73 1019.8
20260903131411 62 45 0.0 0.0 0.00 0.00 0.00 73 1019.9
20260903131011 62 45 0.0 1.0 0.00 0.00 0.00 73 1019.8
20260903130611 62 45 0.0 1.0 0.00 0.00 0.00 73 1019.8
20260903130211 62 45 0.0 2.0 0.00 0.00 0.00 73 1019.9
20260903125411 62 45 2.0 2.0 0.00 0.00 0.00 73 1019.9
20260903125010 62 90 0.0 0.0 0.00 0.00 0.00 73 1019.9
20260903124610 62 45 0.0 0.0 0.00 0.00 0.00 73 1020.0
20260903123810 62 45 0.0 1.0 0.00 0.00 0.00 73 1020.1
20260903123410 62 45 0.0 2.0 0.00 0.00 0.00 74 1020.0
20260903123010 62 65 2.0 2.0 0.00 0.00 0.00 73 1020.1
20260903122610 62 90 0.0 1.0 0.00 0.00 0.00 74 1020.0
20260903121809 62 45 0.0 0.0 0.00 0.00 0.00 74 1019.9
20260903121409 62 45 0.0 1.0 0.00 0.00 0.00 74 1019.9
20260903121009 62 45 0.0 2.0 0.00 0.00 0.00 74 1019.9
20260903120609 62 45 1.0 3.0 0.00 0.00 0.00 75 1019.9
20260903120209 62 45 1.0 2.0 0.00 0.00 0.00 74 1020.0
20260903115809 62 45 0.0 1.0 0.00 0.00 0.00 75 1020.0
20260903115409 62 0 0.0 2.0 0.00 0.00 0.00 75 1020.1
20260903115008 63 45 0.0 1.0 0.00 0.00 0.00 75 1020.0
20260903114608 63 45 1.0 2.0 0.00 0.00 0.00 75 1020.1
20260903114208 63 0 0.0 1.0 0.00 0.00 0.00 74 1020.1
20260903113808 63 45 1.0 2.0 0.00 0.00 0.00 74 1020.1
20260903113408 63 40 0.0 1.0 0.00 0.00 0.00 74 1020.1
20260903113008 63 45 0.0 0.0 0.00 0.00 0.00 74 1020.2
20260903112608 63 0 0.0 0.0 0.00 0.00 0.00 74 1020.3
20260903112207 63 45 0.0 0.0 0.00 0.00 0.00 73 1020.2
20260903111807 63 45 0.0 0.0 0.00 0.00 0.00 73 1020.3
20260903111407 63 45 0.0 0.0 0.00 0.00 0.00 74 1020.3
20260903111007 63 45 0.0 0.0 0.00 0.00 0.00 74 1020.3
20260903110607 63 45 0.0 0.0 0.00 0.00 0.00 74 1020.5
20260903110207 63 0 0.0 1.0 0.00 0.00 0.00 74 1020.3
20260903105807 63 0 0.0 1.0 0.00 0.00 0.00 75 1020.4
20260903105406 63 315 0.0 1.0 0.00 0.00 0.00 74 1020.4
20260903105006 63 315 0.0 0.0 0.00 0.00 0.00 74 1020.4
20260903104606 63 0 0.0 1.0 0.00 0.00 0.00 74 1020.4
20260903104207 63 45 0.0 0.0 0.00 0.00 0.00 73 1020.4
20260903103806 63 45 0.0 0.0 0.00 0.00 0.00 74 1020.3
20260903103006 63 45 0.0 0.0 0.00 0.00 0.00 74 1020.3
20260903102606 63 45 0.0 0.0 0.00 0.00 0.00 74 1020.4
20260903102205 63 45 0.0 0.0 0.00 0.00 0.00 74 1020.5
20260903101806 63 45 0.0 0.0 0.00 0.00 0.00 75 1020.5
20260903101405 63 45 0.0 0.0 0.00 0.00 0.00 74 1020.5
20260903101005 63 45 0.0 2.0 0.00 0.00 0.00 75 1020.5
20260903100605 63 45 1.0 2.0 0.00 0.00 0.00 75 1020.4
20260903095804 63 45 0.0 1.0 0.00 0.00 0.00 75 1020.5
20260903095404 63 0 1.0 2.0 0.00 0.00 0.00 76 1020.4
20260903095004 63 0 1.0 2.0 0.00 0.00 0.00 75 1020.5
20260903094204 63 346 1.0 2.0 0.00 0.00 0.00 75 1020.4
20260903093805 63 355 0.0 1.0 0.00 0.00 0.00 75 1020.5
20260903093003 63 0 0.0 2.0 0.00 0.00 0.00 75 1020.6
20260903092203 64 342 0.0 3.0 0.00 0.00 0.00 75 1020.5
20260903091804 64 270 0.0 2.0 0.00 0.00 0.00 75 1020.6
20260903091403 64 335 1.0 2.0 0.00 0.00 0.00 75 1020.7
20260903091003 64 342 0.0 2.0 0.00 0.00 0.00 75 1020.6
20260903090202 64 321 1.0 3.0 0.00 0.00 0.00 75 1020.7
20260903085802 64 0 3.0 3.0 0.00 0.00 0.00 75 1020.7
20260903085402 64 234 3.0 4.0 0.00 0.00 0.00 75 1020.8
20260903084602 64 319 3.0 3.0 0.00 0.00 0.00 74 1020.8
20260903084202 64 0 0.0 4.0 0.00 0.00 0.00 74 1020.8
20260903083802 64 225 2.0 3.0 0.00 0.00 0.00 74 1020.8
20260903083401 64 225 1.0 4.0 0.00 0.00 0.00 74 1020.8
20260903083001 65 351 3.0 3.0 0.00 0.00 0.00 73 1020.8
20260903082601 65 225 1.0 3.0 0.00 0.00 0.00 73 1020.9
20260903082201 65 315 1.0 3.0 0.00 0.00 0.00 73 1020.9
20260903081801 65 270 1.0 2.0 0.00 0.00 0.00 73 1020.8
20260903081401 65 225 1.0 3.0 0.00 0.00 0.00 72 1020.9
20260903081001 65 324 2.0 3.0 0.00 0.00 0.00 73 1020.8
20260903080601 65 45 0.0 2.0 0.00 0.00 0.00 72 1020.8
20260903080200 65 315 0.0 3.0 0.00 0.00 0.00 72 1020.8
20260903075801 65 0 0.0 3.0 0.00 0.00 0.00 72 1020.8
20260903075400 65 353 3.0 3.0 0.00 0.00 0.00 72 1020.7
20260903075000 65 310 2.0 4.0 0.00 0.00 0.00 72 1020.8
20260903074600 65 315 1.0 3.0 0.00 0.00 0.00 71 1020.8
20260903074200 65 328 2.0 3.0 0.00 0.00 0.00 71 1020.8
20260903073759 65 276 0.0 5.0 0.00 0.00 0.00 71 1020.8
20260903073359 66 348 3.0 5.0 0.00 0.00 0.00 71 1020.8
20260903072959 66 24 1.0 4.0 0.00 0.00 0.00 70 1020.8
20260903072559 66 301 0.0 4.0 0.00 0.00 0.00 70 1020.8
20260903072159 66 339 2.0 4.0 0.00 0.00 0.00 70 1020.8
20260903071359 66 270 1.0 3.0 0.00 0.00 0.00 69 1020.8
20260903070959 66 225 2.0 4.0 0.00 0.00 0.00 69 1020.8
20260903070558 67 310 1.0 3.0 0.00 0.00 0.00 68 1020.9
20260903070158 67 0 0.0 4.0 0.00 0.00 0.00 69 1020.9
20260903065758 67 324 3.0 3.0 0.00 0.00 0.00 68 1020.8
20260903065359 67 225 1.0 3.0 0.00 0.00 0.00 67 1020.8
20260903064958 67 319 3.0 4.0 0.00 0.00 0.00 67 1020.7
20260903064558 67 0 1.0 2.0 0.00 0.00 0.00 67 1020.7
20260903064157 67 357 2.0 2.0 0.00 0.00 0.00 67 1020.7
20260903063757 67 0 1.0 4.0 0.00 0.00 0.00 67 1020.7
20260903062957 67 315 0.0 3.0 0.00 0.00 0.00 67 1020.8
20260903062557 67 20 1.0 5.0 0.00 0.00 0.00 66 1020.7
20260903062157 67 180 2.0 3.0 0.00 0.00 0.00 66 1020.7
20260903061357 68 270 1.0 4.0 0.00 0.00 0.00 66 1020.7
20260903060956 68 297 3.0 3.0 0.00 0.00 0.00 65 1020.8
20260903060557 68 315 0.0 3.0 0.00 0.00 0.00 65 1020.8
20260903060156 68 245 2.0 4.0 0.00 0.00 0.00 65 1020.8
20260903055756 68 258 2.0 4.0 0.00 0.00 0.00 65 1020.7
20260903055358 68 315 1.0 4.0 0.00 0.00 0.00 65 1020.8
20260903054956 68 274 3.0 6.0 0.00 0.00 0.00 64 1020.8
20260903054556 69 247 1.0 5.0 0.00 0.00 0.00 64 1020.8
20260903054155 69 315 1.0 4.0 0.00 0.00 0.00 64 1020.8
20260903053755 69 335 3.0 5.0 0.00 0.00 0.00 63 1020.8
20260903053355 69 326 2.0 4.0 0.00 0.00 0.00 63 1020.8
20260903052955 69 25 3.0 4.0 0.00 0.00 0.00 62 1020.7
20260903052555 69 301 3.0 5.0 0.00 0.00 0.00 62 1020.7
20260903052155 69 267 3.0 5.0 0.00 0.00 0.00 62 1020.7
20260903051755 70 315 1.0 3.0 0.00 0.00 0.00 62 1020.8
20260903051354 70 321 3.0 5.0 0.00 0.00 0.00 62 1020.8
20260903050954 70 308 3.0 4.0 0.00 0.00 0.00 61 1020.7
20260903050554 70 252 3.0 4.0 0.00 0.00 0.00 61 1020.8
20260903050154 70 315 1.0 5.0 0.00 0.00 0.00 60 1020.7
20260903045354 70 261 2.0 5.0 0.00 0.00 0.00 58 1020.7
20260903044954 71 242 5.0 7.0 0.00 0.00 0.00 58 1020.7
20260903044553 71 308 2.0 6.0 0.00 0.00 0.00 57 1020.5
20260903044153 71 279 3.0 6.0 0.00 0.00 0.00 57 1020.6
20260903043753 71 243 4.0 5.0 0.00 0.00 0.00 57 1020.6
20260903043353 71 335 5.0 5.0 0.00 0.00 0.00 57 1020.5
20260903042953 72 288 4.0 7.0 0.00 0.00 0.00 57 1020.5
20260903042553 72 310 4.0 6.0 0.00 0.00 0.00 55 1020.4
20260903042153 72 0 5.0 6.0 0.00 0.00 0.00 55 1020.4
20260903041752 72 0 1.0 4.0 0.00 0.00 0.00 54 1020.5
20260903041352 72 180 1.0 6.0 0.00 0.00 0.00 54 1020.4
20260903040953 72 294 2.0 3.0 0.00 0.00 0.00 54 1020.4
20260903040552 73 321 4.0 6.0 0.00 0.00 0.00 54 1020.3
20260903040152 73 292 2.0 6.0 0.00 0.00 0.00 54 1020.3
20260903035752 73 234 4.0 6.0 0.00 0.00 0.00 54 1020.2
20260903035352 73 252 1.0 6.0 0.00 0.00 0.00 55 1020.2
20260903034951 73 247 4.0 5.0 0.00 0.00 0.00 54 1020.2
20260903034151 74 281 3.0 3.0 0.00 0.00 0.00 54 1020.1
20260903033751 74 330 3.0 7.0 0.00 0.00 0.00 54 1020.0
20260903033351 74 227 4.0 4.0 0.00 0.00 0.00 54 1019.9
20260903032951 74 315 1.0 5.0 0.00 0.00 0.00 54 1020.0
20260903032551 74 270 1.0 5.0 0.00 0.00 0.00 54 1019.9
20260903032150 75 13 2.0 4.0 0.00 0.00 0.00 53 1019.8
20260903031750 75 292 2.0 6.0 0.00 0.00 0.00 53 1019.8
20260903030950 75 351 2.0 5.0 0.00 0.00 0.00 51 1019.7
20260903030550 76 339 4.0 6.0 0.00 0.00 0.00 52 1019.8
20260903030150 76 0 3.0 7.0 0.00 0.00 0.00 51 1019.7
20260903025750 76 319 3.0 6.0 0.00 0.00 0.00 51 1019.7
20260903025349 77 9 4.0 8.0 0.00 0.00 0.00 51 1019.6
20260903024949 77 315 3.0 8.0 0.00 0.00 0.00 51 1019.6
20260903024549 77 333 7.0 9.0 0.00 0.00 0.00 50 1019.5
20260903024149 78 343 1.0 6.0 0.00 0.00 0.00 50 1019.6
20260903023749 78 333 3.0 7.0 0.00 0.00 0.00 51 1019.5
20260903023349 79 348 9.0 10.0 0.00 0.00 0.00 50 1019.6
20260903022949 79 6 6.0 9.0 0.00 0.00 0.00 51 1019.5
20260903022548 80 355 7.0 8.0 0.00 0.00 0.00 51 1019.5
20260903021748 81 2 6.0 8.0 0.00 0.00 0.00 51 1019.5
20260903021348 81 225 2.0 6.0 0.00 0.00 0.00 50 1019.5
20260903020948 81 330 3.0 7.0 0.00 0.00 0.00 50 1019.4
20260903020548 82 343 4.0 4.0 0.00 0.00 0.00 50 1019.4
20260903020148 82 253 1.0 6.0 0.00 0.00 0.00 49 1019.5
20260903015747 83 270 3.0 6.0 0.00 0.00 0.00 48 1019.5
20260903015347 84 255 5.0 7.0 0.00 0.00 0.00 48 1019.5
20260903014547 85 335 4.0 6.0 0.00 0.00 0.00 47 1019.5
20260903014147 85 230 3.0 7.0 0.00 0.00 0.00 47 1019.6
20260903013747 85 262 2.0 7.0 0.00 0.00 0.00 47 1019.5
20260903013347 84 256 7.0 7.0 0.00 0.00 0.00 47 1019.4
20260903012946 84 310 4.0 6.0 0.00 0.00 0.00 47 1019.4
20260903012546 84 218 3.0 6.0 0.00 0.00 0.00 46 1019.4
20260903012146 84 258 3.0 6.0 0.00 0.00 0.00 46 1019.4
20260903011746 84 312 4.0 6.0 0.00 0.00 0.00 46 1019.3
20260903010946 83 285 3.0 6.0 0.00 0.00 0.00 46 1019.3